| time (UTC) | temp C | wind direction | speed KPH | gust KPH | rain 1hr cm | rain 24hr cm | rain mn cm | humidity % | barometer mb |
| 20260509024501 | 12 | 213 | 4.8 | 11.3 | 0.00 | 0.13 | 0.13 | 1 | 1008.8 |
| 20260509023001 | 12 | 213 | 3.2 | 12.9 | 0.00 | 0.13 | 0.13 | 1 | 1008.9 |
| 20260509021502 | 12 | 196 | 6.4 | 12.9 | 0.00 | 0.13 | 0.13 | 1 | 1008.8 |
| 20260509020001 | 12 | 219 | 4.8 | 12.9 | 0.00 | 0.13 | 0.13 | 1 | 1008.8 |
| 20260509014601 | 12 | 217 | 4.8 | 12.9 | 0.03 | 0.13 | 0.13 | 1 | 1008.7 |
| 20260509013101 | 12 | 360 | 6.4 | 11.3 | 0.03 | 0.13 | 0.13 | 1 | 1008.7 |
| 20260509011551 | 12 | 360 | 6.4 | 12.9 | 0.03 | 0.13 | 0.13 | 1 | 1008.7 |
| 20260509010049 | 12 | 211 | 8.0 | 12.9 | 0.03 | 0.13 | 0.13 | 1 | 1008.8 |
| 20260509004543 | 12 | 209 | 1.6 | 6.4 | 0.00 | 0.10 | 0.10 | 1 | 1008.7 |
| 20260509003050 | 12 | 360 | 3.2 | 8.0 | 0.00 | 0.10 | 0.10 | 1 | 1008.8 |
| 20260509001534 | 12 | 360 | 3.2 | 9.7 | 0.00 | 0.10 | 0.10 | 1 | 1008.9 |
| 20260509000037 | 12 | 211 | 1.6 | 6.4 | 0.00 | 0.10 | 0.10 | 1 | 1008.9 |
| 20260508234534 | 12 | 210 | 1.6 | 4.8 | 0.03 | 0.10 | 0.10 | 1 | 1008.8 |
| 20260508233020 | 12 | 360 | 1.6 | 4.8 | 0.05 | 0.10 | 0.10 | 1 | 1008.8 |
| 20260508231516 | 12 | 209 | 3.2 | 9.7 | 0.05 | 0.10 | 0.10 | 1 | 1008.8 |
| 20260508230012 | 12 | 214 | 6.4 | 11.3 | 0.05 | 0.10 | 0.10 | 1 | 1008.8 |
| 20260508224507 | 12 | 360 | 1.6 | 9.7 | 0.03 | 0.08 | 0.08 | 1 | 1009.2 |
| 20260508223007 | 11 | 232 | 3.2 | 4.8 | 0.00 | 0.05 | 0.05 | 1 | 1009.2 |
| 20260508221506 | 12 | 331 | 0.0 | 6.4 | 0.03 | 0.05 | 0.05 | 1 | 1009.1 |
| 20260508220001 | 11 | 10 | 4.8 | 9.7 | 0.03 | 0.05 | 0.05 | 1 | 1009.0 |
| 20260508214608 | 12 | 5 | 1.6 | 9.7 | 0.05 | 0.05 | 0.05 | 1 | 1009.1 |
| 20260508213053 | 12 | 259 | 3.2 | 9.7 | 0.05 | 0.05 | 0.05 | 1 | 1009.4 |
| 20260508211549 | 13 | 13 | 3.2 | 8.0 | 0.03 | 0.03 | 0.03 | 1 | 1009.3 |
| 20260508210045 | 14 | 19 | 1.6 | 9.7 | 0.03 | 0.03 | 0.03 | 1 | 1009.2 |
| 20260508204542 | 15 | 360 | 4.8 | 12.9 | 0.00 | 0.00 | 0.00 | 20 | 1009.4 |
| 20260508203039 | 15 | 254 | 4.8 | 12.9 | 0.00 | 0.00 | 0.00 | 26 | 1009.3 |
| 20260508201637 | 15 | 306 | 1.6 | 9.7 | 0.00 | 0.00 | 0.00 | 29 | 1009.4 |
| 20260508200037 | 15 | 288 | 4.8 | 16.1 | 0.00 | 0.00 | 0.00 | 43 | 1009.5 |
| 20260508194607 | 15 | 360 | 8.0 | 19.3 | 0.00 | 0.00 | 0.00 | 49 | 1009.4 |
| 20260508193036 | 16 | 217 | 14.5 | 20.9 | 0.00 | 0.00 | 0.00 | 55 | 1009.4 |
| 20260508191535 | 17 | 194 | 14.5 | 30.6 | 0.00 | 0.00 | 0.00 | 55 | 1009.2 |
| 20260508190033 | 18 | 360 | 16.1 | 25.7 | 0.00 | 0.00 | 0.00 | 52 | 1009.3 |
| 20260508184534 | 18 | 360 | 9.7 | 19.3 | 0.00 | 0.00 | 0.00 | 51 | 1009.5 |
| 20260508183030 | 18 | 192 | 17.7 | 25.7 | 0.00 | 0.00 | 0.00 | 50 | 1009.7 |
| 20260508181540 | 18 | 360 | 16.1 | 33.8 | 0.00 | 0.00 | 0.00 | 50 | 1009.7 |
| 20260508180026 | 18 | 360 | 12.9 | 24.1 | 0.00 | 0.00 | 0.00 | 51 | 1009.9 |
| 20260508174522 | 17 | 219 | 14.5 | 29.0 | 0.00 | 0.00 | 0.00 | 51 | 1010.2 |
| 20260508173033 | 17 | 221 | 9.7 | 29.0 | 0.00 | 0.00 | 0.00 | 52 | 1010.5 |
| 20260508171524 | 17 | 216 | 14.5 | 22.5 | 0.00 | 0.00 | 0.00 | 52 | 1010.7 |
| 20260508170014 | 17 | 360 | 12.9 | 24.1 | 0.00 | 0.00 | 0.00 | 51 | 1011.0 |
| 20260508164516 | 16 | 239 | 8.0 | 16.1 | 0.00 | 0.00 | 0.00 | 53 | 1011.2 |
| 20260508163010 | 16 | 360 | 9.7 | 19.3 | 0.00 | 0.00 | 0.00 | 53 | 1011.6 |
| 20260508161504 | 16 | 242 | 11.3 | 20.9 | 0.00 | 0.00 | 0.00 | 53 | 1012.1 |
| 20260508160002 | 15 | 360 | 4.8 | 14.5 | 0.00 | 0.00 | 0.00 | 53 | 1012.2 |
| 20260508154601 | 15 | 296 | 11.3 | 19.3 | 0.00 | 0.00 | 0.00 | 53 | 1012.5 |
| 20260508153057 | 15 | 236 | 9.7 | 17.7 | 0.00 | 0.00 | 0.00 | 53 | 1012.7 |
| 20260508151605 | 13 | 238 | 8.0 | 16.1 | 0.00 | 0.00 | 0.00 | 52 | 1012.6 |
| 20260508150050 | 13 | 360 | 9.7 | 16.1 | 0.00 | 0.00 | 0.00 | 50 | 1012.7 |
| 20260508144549 | 12 | 209 | 9.7 | 17.7 | 0.00 | 0.00 | 0.00 | 52 | 1012.9 |
| 20260508143049 | 12 | 360 | 11.3 | 20.9 | 0.00 | 0.00 | 0.00 | 53 | 1012.9 |
| 20260508141544 | 12 | 360 | 12.9 | 20.9 | 0.00 | 0.00 | 0.00 | 49 | 1012.8 |
| 20260508140039 | 11 | 201 | 8.0 | 14.5 | 0.00 | 0.00 | 0.00 | 37 | 1012.7 |
| 20260508134536 | 11 | 213 | 8.0 | 12.9 | 0.00 | 0.00 | 0.00 | 34 | 1012.9 |
| 20260508133050 | 11 | 211 | 8.0 | 12.9 | 0.00 | 0.00 | 0.00 | 41 | 1012.7 |
| 20260508131534 | 11 | 218 | 8.0 | 12.9 | 0.00 | 0.00 | 0.00 | 42 | 1012.9 |
| 20260508130033 | 10 | 216 | 6.4 | 11.3 | 0.00 | 0.00 | 0.00 | 40 | 1013.0 |
| 20260508124531 | 10 | 219 | 6.4 | 9.7 | 0.00 | 0.00 | 0.00 | 41 | 1012.9 |
| 20260508123037 | 10 | 360 | 4.8 | 12.9 | 0.00 | 0.00 | 0.00 | 41 | 1013.0 |
| 20260508121530 | 10 | 226 | 8.0 | 16.1 | 0.00 | 0.00 | 0.00 | 42 | 1013.0 |
| 20260508120030 | 10 | 360 | 9.7 | 12.9 | 0.00 | 0.00 | 0.00 | 46 | 1013.0 |
| 20260508114528 | 10 | 219 | 9.7 | 14.5 | 0.00 | 0.00 | 0.00 | 51 | 1012.9 |
| 20260508113031 | 10 | 237 | 9.7 | 17.7 | 0.00 | 0.00 | 0.00 | 51 | 1012.7 |
| 20260508111528 | 10 | 212 | 9.7 | 17.7 | 0.00 | 0.00 | 0.00 | 52 | 1012.4 |
| 20260508110030 | 10 | 256 | 9.7 | 19.3 | 0.00 | 0.00 | 0.00 | 53 | 1012.4 |
| 20260508104525 | 10 | 245 | 9.7 | 17.7 | 0.00 | 0.00 | 0.00 | 52 | 1012.4 |
| 20260508103025 | 10 | 199 | 4.8 | 12.9 | 0.00 | 0.00 | 0.00 | 48 | 1012.4 |
| 20260508101524 | 10 | 229 | 3.2 | 11.3 | 0.00 | 0.00 | 0.00 | 48 | 1012.3 |
| 20260508100026 | 9 | 217 | 6.4 | 9.7 | 0.00 | 0.00 | 0.00 | 48 | 1012.2 |
| 20260508094523 | 9 | 220 | 8.0 | 11.3 | 0.00 | 0.00 | 0.00 | 50 | 1012.2 |
| 20260508093024 | 9 | 238 | 6.4 | 12.9 | 0.00 | 0.00 | 0.00 | 51 | 1012.3 |
| 20260508091526 | 9 | 360 | 8.0 | 11.3 | 0.00 | 0.00 | 0.00 | 52 | 1012.2 |
| 20260508090023 | 10 | 221 | 8.0 | 12.9 | 0.00 | 0.00 | 0.00 | 53 | 1012.4 |
| 20260508084518 | 10 | 225 | 8.0 | 14.5 | 0.00 | 0.00 | 0.00 | 54 | 1012.6 |
| 20260508083018 | 10 | 360 | 9.7 | 19.3 | 0.00 | 0.00 | 0.00 | 54 | 1012.4 |
| 20260508081522 | 10 | 234 | 11.3 | 20.9 | 0.00 | 0.00 | 0.00 | 54 | 1012.4 |
| 20260508080018 | 10 | 227 | 12.9 | 20.9 | 0.00 | 0.00 | 0.00 | 54 | 1012.5 |
| 20260508074516 | 10 | 360 | 12.9 | 22.5 | 0.00 | 0.00 | 0.00 | 54 | 1012.5 |
| 20260508073013 | 10 | 360 | 9.7 | 19.3 | 0.00 | 0.00 | 0.00 | 53 | 1012.6 |
| 20260508071517 | 10 | 213 | 9.7 | 16.1 | 0.00 | 0.00 | 0.00 | 54 | 1012.7 |
| 20260508070010 | 10 | 225 | 9.7 | 14.5 | 0.00 | 0.00 | 0.00 | 53 | 1012.8 |
| 20260508064510 | 10 | 213 | 6.4 | 16.1 | 0.00 | 0.00 | 0.00 | 50 | 1012.8 |
| 20260508063007 | 10 | 228 | 8.0 | 14.5 | 0.00 | 0.00 | 0.00 | 49 | 1012.9 |
| 20260508061515 | 10 | 360 | 6.4 | 14.5 | 0.00 | 0.00 | 0.00 | 44 | 1013.0 |
| 20260508060005 | 9 | 360 | 8.0 | 9.7 | 0.00 | 0.00 | 0.00 | 37 | 1013.1 |
| 20260508054503 | 8 | 360 | 4.8 | 8.0 | 0.00 | 0.00 | 0.00 | 30 | 1013.3 |
| 20260508053002 | 9 | 227 | 1.6 | 6.4 | 0.00 | 0.00 | 0.00 | 34 | 1013.3 |
| 20260508051600 | 9 | 360 | 1.6 | 9.7 | 0.00 | 0.00 | 0.00 | 40 | 1013.4 |
| 20260508050055 | 10 | 226 | 0.0 | 9.7 | 0.00 | 0.00 | 0.00 | 45 | 1013.4 |
| 20260508044604 | 10 | 360 | 6.4 | 8.0 | 0.00 | 0.00 | 0.00 | 49 | 1013.3 |
| 20260508043102 | 10 | 10 | 0.0 | 6.4 | 0.00 | 0.00 | 0.00 | 46 | 1013.5 |
| 20260508041554 | 10 | 311 | 4.8 | 16.1 | 0.00 | 0.00 | 0.00 | 45 | 1013.4 |
| 20260508040047 | 10 | 219 | 9.7 | 16.1 | 0.00 | 0.00 | 0.00 | 43 | 1013.0 |
| 20260508034552 | 10 | 360 | 8.0 | 12.9 | 0.00 | 0.00 | 0.00 | 35 | 1012.9 |
| 20260508033043 | 10 | 205 | 6.4 | 11.3 | 0.00 | 0.00 | 0.00 | 34 | 1012.9 |
| 20260508031543 | 10 | 360 | 8.0 | 11.3 | 0.00 | 0.00 | 0.00 | 31 | 1013.0 |
| 20260508030046 | 10 | 360 | 6.4 | 11.3 | 0.00 | 0.00 | 0.00 | 25 | 1013.0 |